Modesto, CA

6:44 AM PDT on August 26, 2016 (GMT -0700)
Modesto City-County-Sham

Weather History for KMOD - July, 2013

Change the Weather History Date:

Wednesday, July 17, 2013

  Actual Average Record
Temperature  
Mean Temperature 74 °F -  
Max Temperature 91 °F 96 °F 108 °F (1935)
Min Temperature 57 °F 63 °F 52 °F (1936)
Degree Days  
Heating Degree Days 0 0  
Month to date heating degree days 0 0  
Since 1 June heating degree days 0 3  
Since 1 July heating degree days 0 0  
Cooling Degree Days 9 14  
Month to date cooling degree days 275 233  
Year to date cooling degree days 877 731  
Since 1 June cooling degree days 631 532  
Growing Degree Days 24 (Base 50)    
Moisture  
Dew Point 52 °F    
Average Humidity 54    
Maximum Humidity 87    
Minimum Humidity 21    
Precipitation  
Precipitation 0.00 in 0.00 in 0.00 in (2016)
Month to date precipitation 0.00 0.00  
Year to date precipitation 3.21 8.75  
Since 1 July precipitation 0.00  
Snow  
Snow 0.00 in - - ()
Month to date snowfall 0.0  
Since 1 June snowfall 0.0  
Since 1 July snowfall 0.0  
Snow Depth -    
Sea Level Pressure  
Sea Level Pressure 30.00 in    
Wind  
Wind Speed 9 mph (NNW)    
Max Wind Speed 15 mph    
Max Gust Speed 29 mph    
Visibility 10 miles    
Events      
T = Trace of Precipitation, MM = Missing Value Source: NWS Daily Summary

Daily Weather History Graph

Daily Weather History Graph

Search for Another Location

Airport or City:

Trip Planner

Search our weather history database for the weather conditions in past years. The results will help you decide how hot, cold, wet, or windy it might be!

Date:

Astronomy

Jul. 17, 2013 Rise Set
Actual Time 5:56 AM PDT 8:23 PM PDT
Civil Twilight 5:25 AM PDT 8:53 PM PDT
Nautical Twilight 4:48 AM PDT 9:30 PM PDT
Astronomical Twilight 4:07 AM PDT 10:12 PM PDT
Moon 3:20 PM PDT (7/17) 1:04 AM PDT (7/17)
Length of Visible Light 15h 27m
Length of Day
14h 27m
Waxing Gibbous, 68% of the Moon is Illuminated
Jul 17
Waxing Gibbous
Jul 22
Full
Jul 29
Last Quarter
Aug 6
New
Aug 14
First Quarter

Hourly Weather History & Observations

Time (PDT) Temp. Heat Index Dew Point Humidity Pressure Visibility Wind Dir Wind Speed Gust Speed Precip Events Conditions
12:53 AM 61.0 °F - 55.0 °F 81% 29.98 in 10.0 mi North 8.1 mph - N/A   Clear
1:53 AM 59.0 °F - 55.0 °F 87% 29.99 in 10.0 mi North 6.9 mph - N/A   Clear
2:53 AM 59.0 °F - 54.0 °F 83% 29.99 in 10.0 mi North 8.1 mph - N/A   Clear
3:53 AM 57.9 °F - 54.0 °F 87% 29.99 in 10.0 mi North 9.2 mph - N/A   Clear
4:53 AM 57.0 °F - 54.0 °F 89% 29.99 in 10.0 mi NNW 8.1 mph - N/A   Clear
5:53 AM 57.0 °F - 54.0 °F 89% 30.01 in 10.0 mi North 9.2 mph - N/A   Clear
6:53 AM 57.9 °F - 54.0 °F 87% 30.02 in 10.0 mi NNW 8.1 mph - N/A   Clear
7:53 AM 62.1 °F - 54.0 °F 75% 30.04 in 10.0 mi NNW 8.1 mph - N/A   Clear
8:15 AM 64.4 °F - 53.6 °F 68% 30.04 in 2.5 mi NNW 10.4 mph - N/A   Haze
8:17 AM 64.4 °F - 53.6 °F 68% 30.04 in 10.0 mi NNW 11.5 mph - N/A   Clear
8:53 AM 66.0 °F - 54.0 °F 65% 30.05 in 10.0 mi NNW 12.7 mph - N/A   Clear
9:53 AM 70.0 °F - 54.0 °F 57% 30.05 in 10.0 mi NW 10.4 mph - N/A   Clear
10:53 AM 73.9 °F - 55.0 °F 52% 30.05 in 10.0 mi NNW 9.2 mph - N/A   Clear
11:53 AM 77.0 °F - 55.0 °F 47% 30.04 in 10.0 mi NNW 8.1 mph - N/A   Clear
12:53 PM 81.0 °F 80.5 °F 54.0 °F 39% 30.04 in 10.0 mi NNW 8.1 mph - N/A   Clear
1:53 PM 82.9 °F 81.8 °F 53.1 °F 36% 30.02 in 10.0 mi WNW 10.4 mph - N/A   Clear
2:53 PM 86.0 °F - 51.1 °F 30% 30.01 in 10.0 mi NNW 6.9 mph - N/A   Clear
3:53 PM 89.1 °F - 46.9 °F 23% 29.99 in 10.0 mi NW 8.1 mph - N/A   Clear
4:53 PM 90.0 °F - 44.1 °F 20% 29.97 in 10.0 mi NNW 10.4 mph - N/A   Clear
5:53 PM 91.0 °F - 30.0 °F 11% 29.96 in 10.0 mi NW 11.5 mph - N/A   Clear
6:53 PM 89.1 °F - 48.0 °F 24% 29.96 in 10.0 mi North 13.8 mph - N/A   Clear
7:53 PM 84.9 °F - 52.0 °F 32% 29.96 in 10.0 mi NW 9.2 mph - N/A   Clear
8:53 PM 80.1 °F - 51.1 °F 36% 29.97 in 10.0 mi NW 8.1 mph - N/A   Clear
9:53 PM 77.0 °F - 54.0 °F 45% 29.98 in 10.0 mi NW 8.1 mph - N/A   Clear
10:53 PM 73.9 °F - 54.0 °F 50% 29.99 in 10.0 mi NNW 6.9 mph - N/A   Clear
11:53 PM 72.0 °F - 51.1 °F 48% 29.99 in 10.0 mi North 9.2 mph - N/A   Clear